Time,TemperatureF,DewpointF,PressureIn,WindDirection,WindDirectionDegrees,WindSpeedMPH,WindSpeedGustMPH,Humidity,HourlyPrecipIn,Conditions,Clouds,dailyrainin,SolarRadiationWatts/m^2,SoftwareType,DateUTC
2013-12-13 00:02:00,30.0,26.0,-100.00,WNW,286,1.0,4.0,84,0.00,,,0.00,0.000000,,2013-12-13 05:02:00,
2013-12-13 00:42:00,30.0,26.0,-100.00,WNW,286,1.0,4.0,84,0.00,,,0.00,0.000000,,2013-12-13 05:42:00,
2013-12-13 00:53:00,30.0,26.0,-100.00,WNW,286,1.0,4.0,84,0.00,,,0.00,0.000000,,2013-12-13 05:53:00,
2013-12-13 01:02:00,29.0,24.0,-100.00,WNW,287,2.0,4.0,82,0.00,,,0.00,0.000000,,2013-12-13 06:02:00,
2013-12-13 01:43:00,29.0,24.0,-100.00,WNW,287,2.0,4.0,82,0.00,,,0.00,0.000000,,2013-12-13 06:43:00,
2013-12-13 01:52:00,29.0,24.0,-100.00,WNW,287,2.0,4.0,82,0.00,,,0.00,0.000000,,2013-12-13 06:52:00,
2013-12-13 02:02:00,30.0,25.0,-100.00,West,280,1.0,4.0,80,0.00,,,0.00,0.000000,,2013-12-13 07:02:00,
2013-12-13 02:42:00,30.0,25.0,-100.00,West,280,1.0,4.0,80,0.00,,,0.00,0.000000,,2013-12-13 07:42:00,
2013-12-13 02:52:00,30.0,25.0,-100.00,West,280,1.0,4.0,80,0.00,,,0.00,0.000000,,2013-12-13 07:52:00,
2013-12-13 03:02:00,28.0,24.0,-100.00,North,-999,0.0,3.0,83,0.00,,,0.00,0.000000,,2013-12-13 08:02:00,
2013-12-13 03:42:00,28.0,24.0,-100.00,North,-999,0.0,3.0,83,0.00,,,0.00,0.000000,,2013-12-13 08:42:00,
2013-12-13 03:52:00,28.0,24.0,-100.00,North,-999,0.0,3.0,83,0.00,,,0.00,0.000000,,2013-12-13 08:52:00,
2013-12-13 04:02:00,27.0,23.0,-100.00,North,-999,0.0,4.0,86,0.00,,,0.00,0.000000,,2013-12-13 09:02:00,
2013-12-13 04:43:00,27.0,23.0,-100.00,North,-999,0.0,4.0,86,0.00,,,0.00,0.000000,,2013-12-13 09:43:00,
2013-12-13 04:54:00,27.0,23.0,-100.00,North,-999,0.0,4.0,86,0.00,,,0.00,0.000000,,2013-12-13 09:54:00,
2013-12-13 05:02:00,26.0,24.0,-100.00,North,-999,0.0,0.0,91,0.00,,,0.00,0.000000,,2013-12-13 10:02:00,
2013-12-13 05:43:00,26.0,24.0,-100.00,North,-999,0.0,0.0,91,0.00,,,0.00,0.000000,,2013-12-13 10:43:00,
2013-12-13 05:53:00,26.0,24.0,-100.00,North,-999,0.0,0.0,91,0.00,,,0.00,0.000000,,2013-12-13 10:53:00,
2013-12-13 06:02:00,26.0,23.0,-100.00,NNE,13,1.0,3.0,89,0.00,,,0.00,0.000000,,2013-12-13 11:02:00,
2013-12-13 06:43:00,26.0,23.0,-100.00,NNE,13,1.0,3.0,89,0.00,,,0.00,0.000000,,2013-12-13 11:43:00,
2013-12-13 06:53:00,26.0,23.0,-100.00,NNE,13,1.0,3.0,89,0.00,,,0.00,0.000000,,2013-12-13 11:53:00,
2013-12-13 07:02:00,25.0,24.0,-100.00,North,-999,0.0,0.0,94,0.00,,,0.00,0.000000,,2013-12-13 12:02:00,
2013-12-13 07:42:00,25.0,24.0,-100.00,North,-999,0.0,0.0,94,0.00,,,0.00,0.000000,,2013-12-13 12:42:00,
2013-12-13 07:53:00,25.0,24.0,-100.00,North,-999,0.0,0.0,94,0.00,,,0.00,0.000000,,2013-12-13 12:53:00,
2013-12-13 08:02:00,25.0,23.0,-100.00,WSW,258,1.0,2.0,93,0.00,,,0.00,9.000000,,2013-12-13 13:02:00,
2013-12-13 08:42:00,25.0,23.0,-100.00,WSW,258,1.0,2.0,93,0.00,,,0.00,9.000000,,2013-12-13 13:42:00,
2013-12-13 08:52:00,25.0,23.0,-100.00,WSW,258,1.0,2.0,93,0.00,,,0.00,9.000000,,2013-12-13 13:52:00,
2013-12-13 09:02:00,35.0,26.0,-100.00,SSE,159,5.0,8.0,69,0.00,,,0.00,175.000000,,2013-12-13 14:02:00,
2013-12-13 09:22:00,35.0,26.0,-100.00,SSE,159,5.0,8.0,69,0.00,,,0.00,175.000000,,2013-12-13 14:22:00,
2013-12-13 09:32:00,35.0,26.0,-100.00,SSE,159,5.0,8.0,69,0.00,,,0.00,175.000000,,2013-12-13 14:32:00,
2013-12-13 09:43:00,35.0,26.0,-100.00,SSE,159,5.0,8.0,69,0.00,,,0.00,175.000000,,2013-12-13 14:43:00,
2013-12-13 09:53:00,35.0,26.0,-100.00,SSE,159,5.0,8.0,69,0.00,,,0.00,175.000000,,2013-12-13 14:53:00,
2013-12-13 10:02:00,43.0,28.0,-100.00,SSE,161,5.0,8.0,55,0.00,,,0.00,353.000000,,2013-12-13 15:02:00,
2013-12-13 10:44:00,43.0,28.0,-100.00,SSE,161,5.0,8.0,55,0.00,,,0.00,353.000000,,2013-12-13 15:44:00,
2013-12-13 10:54:00,43.0,28.0,-100.00,SSE,161,5.0,8.0,55,0.00,,,0.00,353.000000,,2013-12-13 15:54:00,
2013-12-13 11:02:00,48.0,28.0,-100.00,SSE,165,6.0,10.0,46,0.00,,,0.00,510.000000,,2013-12-13 16:02:00,
2013-12-13 11:43:00,48.0,28.0,-100.00,SSE,165,6.0,10.0,46,0.00,,,0.00,510.000000,,2013-12-13 16:43:00,
2013-12-13 11:53:00,48.0,28.0,-100.00,SSE,165,6.0,10.0,46,0.00,,,0.00,510.000000,,2013-12-13 16:53:00,
2013-12-13 12:02:00,53.0,27.0,-100.00,SSW,209,4.0,9.0,37,0.00,,,0.00,606.000000,,2013-12-13 17:02:00,
2013-12-13 12:43:00,53.0,27.0,-100.00,SSW,209,4.0,9.0,37,0.00,,,0.00,606.000000,,2013-12-13 17:43:00,
2013-12-13 12:52:00,53.0,27.0,-100.00,SSW,209,4.0,9.0,37,0.00,,,0.00,606.000000,,2013-12-13 17:52:00,
2013-12-13 13:02:00,55.0,27.0,-100.00,South,184,5.0,10.0,34,0.00,,,0.00,637.000000,,2013-12-13 18:02:00,
2013-12-13 13:42:00,55.0,27.0,-100.00,South,184,5.0,10.0,34,0.00,,,0.00,637.000000,,2013-12-13 18:42:00,
2013-12-13 13:52:00,55.0,27.0,-100.00,South,184,5.0,10.0,34,0.00,,,0.00,637.000000,,2013-12-13 18:52:00,
2013-12-13 14:02:00,57.0,24.0,-100.00,South,170,6.0,12.0,28,0.00,,,0.00,629.000000,,2013-12-13 19:02:00,
2013-12-13 14:42:00,57.0,24.0,-100.00,South,170,6.0,12.0,28,0.00,,,0.00,629.000000,,2013-12-13 19:42:00,
2013-12-13 14:52:00,57.0,24.0,-100.00,South,170,6.0,12.0,28,0.00,,,0.00,629.000000,,2013-12-13 19:52:00,
2013-12-13 15:02:00,57.0,25.0,-100.00,South,188,5.0,10.0,29,0.00,,,0.00,479.000000,,2013-12-13 20:02:00,
2013-12-13 15:42:00,57.0,25.0,-100.00,South,188,5.0,10.0,29,0.00,,,0.00,479.000000,,2013-12-13 20:42:00,
2013-12-13 15:53:00,57.0,25.0,-100.00,South,188,5.0,10.0,29,0.00,,,0.00,479.000000,,2013-12-13 20:53:00,
2013-12-13 16:02:00,57.0,27.0,-100.00,South,173,4.0,7.0,32,0.00,,,0.00,332.000000,,2013-12-13 21:02:00,
2013-12-13 16:43:00,57.0,27.0,-100.00,South,173,4.0,7.0,32,0.00,,,0.00,332.000000,,2013-12-13 21:43:00,
2013-12-13 16:53:00,57.0,27.0,-100.00,South,173,4.0,7.0,32,0.00,,,0.00,332.000000,,2013-12-13 21:53:00,
2013-12-13 17:02:00,50.0,34.0,-100.00,North,-999,0.0,7.0,54,0.00,,,0.00,105.000000,,2013-12-13 22:02:00,
2013-12-13 17:42:00,50.0,34.0,-100.00,North,-999,0.0,7.0,54,0.00,,,0.00,105.000000,,2013-12-13 22:42:00,
2013-12-13 17:53:00,50.0,34.0,-100.00,North,-999,0.0,7.0,54,0.00,,,0.00,105.000000,,2013-12-13 22:53:00,
2013-12-13 18:02:00,45.0,37.0,-100.00,North,-999,0.0,0.0,72,0.00,,,0.00,5.000000,,2013-12-13 23:02:00,
2013-12-13 18:43:00,45.0,37.0,-100.00,North,-999,0.0,0.0,72,0.00,,,0.00,5.000000,,2013-12-13 23:43:00,
2013-12-13 18:53:00,45.0,37.0,-100.00,North,-999,0.0,0.0,72,0.00,,,0.00,5.000000,,2013-12-13 23:53:00,
2013-12-13 19:02:00,42.0,37.0,-100.00,North,-999,0.0,2.0,81,0.00,,,0.00,0.000000,,2013-12-14 00:02:00,
2013-12-13 19:22:00,42.0,37.0,-100.00,North,-999,0.0,2.0,81,0.00,,,0.00,0.000000,,2013-12-14 00:22:00,
2013-12-13 19:32:00,42.0,37.0,-100.00,North,-999,0.0,2.0,81,0.00,,,0.00,0.000000,,2013-12-14 00:32:00,
2013-12-13 19:42:00,42.0,37.0,-100.00,North,-999,0.0,2.0,81,0.00,,,0.00,0.000000,,2013-12-14 00:42:00,
2013-12-13 19:52:00,42.0,37.0,-100.00,North,-999,0.0,2.0,81,0.00,,,0.00,0.000000,,2013-12-14 00:52:00,
2013-12-13 20:42:00,43.0,36.0,-100.00,NE,46,1.0,3.0,77,0.00,,,0.00,0.000000,,2013-12-14 01:42:00,
2013-12-13 20:52:00,43.0,36.0,-100.00,NE,46,1.0,3.0,77,0.00,,,0.00,0.000000,,2013-12-14 01:52:00,
2013-12-13 21:01:00,43.0,36.0,-100.00,NE,46,1.0,3.0,77,0.00,,,0.00,0.000000,,2013-12-14 02:01:00,
2013-12-13 21:02:00,43.0,35.0,-100.00,North,-999,0.0,2.0,74,0.00,,,0.00,0.000000,,2013-12-14 02:02:00,
2013-12-13 21:42:00,43.0,35.0,-100.00,North,-999,0.0,2.0,74,0.00,,,0.00,0.000000,,2013-12-14 02:42:00,
2013-12-13 21:52:00,43.0,35.0,-100.00,North,-999,0.0,2.0,74,0.00,,,0.00,0.000000,,2013-12-14 02:52:00,
2013-12-13 22:02:00,41.0,37.0,-100.00,North,-999,0.0,0.0,85,0.00,,,0.00,0.000000,,2013-12-14 03:02:00,
2013-12-13 22:44:00,41.0,37.0,-100.00,North,-999,0.0,0.0,85,0.00,,,0.00,0.000000,,2013-12-14 03:44:00,
2013-12-13 22:54:00,41.0,37.0,-100.00,North,-999,0.0,0.0,85,0.00,,,0.00,0.000000,,2013-12-14 03:54:00,
2013-12-13 23:02:00,44.0,34.0,-100.00,NE,41,2.0,5.0,69,0.00,,,0.00,0.000000,,2013-12-14 04:02:00,
2013-12-13 23:23:00,44.0,34.0,-100.00,NE,41,2.0,5.0,69,0.00,,,0.00,0.000000,,2013-12-14 04:23:00,
2013-12-13 23:33:00,44.0,34.0,-100.00,NE,41,2.0,5.0,69,0.00,,,0.00,0.000000,,2013-12-14 04:33:00,
2013-12-13 23:43:00,44.0,34.0,-100.00,NE,41,2.0,5.0,69,0.00,,,0.00,0.000000,,2013-12-14 04:43:00,
2013-12-13 23:53:00,44.0,34.0,-100.00,NE,41,2.0,5.0,69,0.00,,,0.00,0.000000,,2013-12-14 04:53:00,